GEFSMA_500_meanwind_138.txt.gz
Wind_Speed
22 23 23 22 22 21 20 20 20 20 19 19 19 19 20 20 20 20 20 19 20 19 18 18 19 20 20 20 20 21 22 23 23 23 23 23 23 23 23 23 23 22 22
24 23 22 22 22 21 21 21 21 20 20 20 20 20 20 20 21 21 20 20 20 20 20 20 20 21 21 21 22 23 23 24 24 25 24 25 25 24 24 25 26 25 25
25 24 24 23 23 22 22 22 22 22 22 22 21 21 21 21 21 21 21 21 21 21 21 22 22 22 22 23 24 25 25 25 26 25 26 26 26 27 27 26 27 27 27
25 24 24 23 24 24 23 22 22 23 23 22 22 22 22 22 21 21 21 21 22 22 22 23 23 23 23 24 25 26 27 27 27 27 27 27 28 28 28 29 29 28 28
23 23 24 24 24 24 23 23 24 24 24 24 23 22 22 22 22 22 22 23 23 23 23 23 23 24 24 25 26 27 27 27 27 27 28 28 28 29 30 29 30 30 30
24 24 24 24 25 25 24 24 24 24 24 24 24 23 23 23 23 24 24 24 25 24 24 24 24 25 25 26 27 27 28 28 27 27 28 29 29 30 30 30 30 32 32
25 25 25 25 26 25 25 25 25 25 24 24 24 24 23 23 24 25 25 26 26 26 25 25 26 27 27 27 28 28 28 28 28 28 28 28 30 31 30 30 29 30 32
25 25 25 26 26 25 25 25 25 25 24 24 25 24 24 25 25 26 26 27 27 27 27 27 28 28 28 29 29 29 29 29 29 29 29 29 31 31 30 29 30 30 30
24 24 24 25 26 26 26 26 26 26 25 25 25 26 26 25 26 26 26 26 27 27 27 27 28 29 29 30 30 30 29 29 30 30 31 30 31 30 29 29 30 30 30
23 24 24 25 26 26 26 26 26 26 26 26 26 27 27 26 26 26 26 26 26 27 28 28 28 29 29 30 30 30 30 30 29 29 30 30 30 30 30 30 30 30 30
24 24 24 24 25 25 25 25 26 26 26 26 26 27 27 27 27 26 25 26 26 26 27 28 28 29 30 30 30 30 30 30 29 29 29 30 30 30 29 29 29 29 29
24 24 24 24 24 24 25 25 25 26 26 27 27 27 27 26 26 26 25 26 26 26 27 27 28 29 29 30 29 29 29 28 27 28 29 29 29 29 29 28 28 29 29
22 23 23 24 25 25 25 25 26 26 26 27 27 27 26 26 26 26 26 26 26 26 26 27 27 28 28 28 28 28 27 26 26 27 27 28 27 27 27 28 27 28 29
24 24 24 24 25 26 26 25 26 26 27 27 27 27 26 26 26 26 26 26 26 26 26 26 27 27 27 27 26 25 25 24 25 25 25 25 26 26 27 27 28 28 29
24 24 24 25 25 25 25 26 26 26 27 27 26 26 26 26 26 26 26 26 26 26 26 25 25 25 25 24 23 23 23 23 24 23 23 24 24 25 25 26 27 27 27
23 23 23 24 24 25 26 26 26 26 26 26 26 26 25 26 26 26 26 26 26 26 25 25 24 23 23 22 21 21 21 21 22 22 22 23 23 24 24 25 25 26 25
25 25 25 24 24 25 25 25 25 26 26 26 26 25 25 25 25 25 25 25 24 24 24 23 22 21 21 20 20 19 20 20 20 21 21 21 21 22 23 23 21 21 22
25 25 25 24 24 24 24 24 24 24 25 25 25 25 25 25 24 24 24 23 22 22 22 21 21 20 19 18 18 18 18 18 18 18 18 18 19 19 19 18 18 18 18
24 24 24 23 23 22 22 23 23 23 22 22 23 23 23 23 23 22 22 22 22 21 20 20 19 18 18 17 17 17 17 16 16 16 16 16 16 16 16 16 16 16 16
22 23 22 22 21 21 21 21 21 21 21 20 21 21 21 21 21 21 20 20 20 19 19 18 17 17 16 16 16 15 15 14 14 14 14 14 13 14 14 13 13 13 13
21 21 21 20 20 20 19 19 19 18 18 19 19 18 19 19 19 18 18 18 17 17 16 16 15 15 14 14 14 14 13 12 12 12 11 12 11 11 10 10 10 11 11
20 20 19 19 19 18 17 16 16 16 16 16 16 17 17 16 15 15 16 16 15 15 15 13 13 12 12 12 12 11 10 9 9 9 9 10 9 9 8 8 9 10 11
18 18 17 17 16 15 15 15 15 14 14 14 14 14 14 14 13 13 13 13 13 13 13 13 13 12 10 10 9 8 8 7 7 7 7 7 7 8 7 8 9 9 11
14 14 14 14 13 12 12 12 11 12 12 12 11 11 10 10 10 10 11 11 11 11 11 12 11 11 10 9 8 7 6 6 6 6 6 6 6 6 7 8 8 9 11
11 10 10 10 9 8 8 7 7 7 7 7 7 7 7 6 6 6 7 8 8 8 9 8 7 7 7 6 6 5 5 4 4 5 5 5 6 7 7 8 9 10 11
9 8 7 7 6 6 5 5 5 4 4 3 3 2 2 3 3 3 3 3 3 4 4 3 4 5 5 4 4 3 3 3 3 4 5 6 6 7 8 9 9 11 12

GEFSMA_500_meanwind_144.txt.gz
Wind_Speed
24 24 24 23 24 24 24 24 24 24 23 22 21 21 20 20 19 19 18 18 17 17 17 17 17 17 17 17 17 18 19 20 20 21 21 21 21 22 22 22 22 23 23
24 24 23 24 24 25 24 24 24 23 22 22 21 21 21 20 20 20 20 19 18 18 18 18 18 18 18 18 18 18 19 20 21 22 23 23 23 24 24 24 24 24 24
23 24 24 24 24 24 25 24 24 23 23 22 22 22 22 21 21 21 21 21 20 19 19 20 19 19 20 20 20 20 20 20 21 22 23 24 24 25 25 26 26 26 27
23 23 23 23 24 25 25 24 24 23 23 23 23 23 23 22 22 22 21 21 21 21 21 21 21 21 21 21 21 21 21 21 22 23 24 24 25 26 27 27 27 28 28
23 23 23 25 25 24 24 24 24 23 23 23 23 23 22 22 22 22 22 22 21 21 21 21 21 22 22 22 22 22 22 22 23 23 24 24 25 25 26 27 27 28 28
24 24 24 24 23 23 23 24 23 23 23 24 23 23 23 22 22 23 23 23 22 22 22 22 22 22 23 22 22 23 23 24 24 24 24 24 25 25 26 27 27 28 29
23 23 23 23 23 24 24 24 24 24 24 24 24 24 24 24 23 23 23 23 23 24 24 23 23 24 24 23 24 24 24 24 25 25 25 26 26 27 27 27 28 29 29
23 23 23 24 23 23 23 23 24 24 24 24 24 24 24 24 24 24 24 24 24 25 25 25 25 25 25 25 25 25 25 26 26 26 26 27 27 28 29 28 28 29 29
24 24 23 23 22 22 22 23 24 24 25 25 25 24 23 23 24 25 25 25 25 26 26 26 25 25 26 26 26 26 26 26 26 27 27 28 28 28 28 28 29 29 30
24 24 24 23 23 22 23 23 23 24 25 25 25 25 24 24 24 24 25 24 25 25 25 25 25 25 25 25 25 25 26 26 26 27 27 28 28 28 29 29 29 30 29
24 23 23 23 22 22 22 22 23 24 24 24 24 25 25 25 25 24 24 25 25 25 25 25 24 25 25 25 25 25 25 26 26 26 26 27 27 27 27 28 28 29 29
24 24 23 23 22 21 21 22 23 24 24 24 24 25 25 25 25 25 25 25 25 25 25 24 24 25 25 25 25 25 25 25 25 25 25 26 26 26 26 27 27 27 27
23 24 24 22 21 20 20 21 22 24 24 24 24 24 25 25 26 26 25 24 25 25 25 24 24 24 24 24 24 24 24 24 24 24 24 24 24 24 24 25 25 26 27
22 22 23 22 21 21 22 22 23 23 24 24 24 25 25 25 25 25 25 24 24 23 23 24 24 24 24 24 24 24 23 23 23 23 23 23 23 24 24 24 25 25 26
23 22 22 22 22 22 23 23 23 24 24 24 24 24 25 25 24 24 25 24 23 22 22 23 23 23 24 23 22 22 22 22 22 22 22 22 22 22 23 24 25 25 26
22 22 21 22 22 22 22 23 23 23 23 23 23 24 24 24 24 24 24 24 24 23 23 23 23 22 21 21 21 21 21 21 21 21 21 21 22 22 23 23 24 24 24
22 22 21 21 21 21 21 21 21 21 22 22 22 22 23 23 23 23 23 23 23 23 22 22 21 21 20 20 20 20 20 20 19 19 19 20 21 22 22 22 22 21 21
22 21 20 20 20 20 19 19 20 20 20 21 21 21 21 21 22 22 22 22 22 21 20 20 20 20 19 18 18 17 17 18 18 18 18 18 18 19 19 20 20 19 19
20 20 20 19 19 19 19 18 18 18 18 19 19 19 19 19 20 20 20 20 20 20 20 19 19 17 17 16 16 16 16 16 16 16 16 16 17 16 15 15 15 15 15
19 19 18 17 17 18 18 17 17 17 17 16 16 16 16 17 17 18 18 18 18 18 18 18 18 17 17 16 16 16 15 15 15 15 14 14 13 13 12 12 12 12 12
18 17 17 16 16 16 15 15 15 15 15 15 15 15 14 14 14 15 15 16 16 16 16 16 16 16 15 15 15 14 14 14 13 12 12 12 11 11 10 10 10 10 10
15 15 15 15 14 14 13 13 13 13 14 14 14 14 14 13 12 12 13 14 15 15 15 15 15 15 14 14 13 14 13 12 12 11 11 10 10 10 9 8 9 9 9
13 13 13 12 12 12 11 11 12 12 11 11 12 12 12 11 11 11 12 12 12 13 13 13 13 13 13 12 13 12 12 11 10 9 8 8 9 8 7 7 7 8 8
11 10 9 9 9 9 9 9 9 8 8 9 9 9 9 9 9 9 9 10 10 11 11 11 11 11 12 12 11 10 9 9 9 8 8 7 7 7 6 6 6 7 8
8 7 7 7 6 6 7 7 6 5 6 6 6 7 7 7 7 7 7 7 8 8 9 9 9 9 10 10 10 10 8 8 7 7 7 7 7 6 7 7 7 8 8
6 5 5 4 4 4 4 4 3 3 3 3 4 4 5 5 4 4 5 6 6 7 7 7 7 7 8 8 7 8 7 7 7 6 6 6 6 6 6 7 8 8 9

GEFSMA_500_meanwind_150.txt.gz
Wind_Speed
22 22 22 23 24 25 27 27 26 27 26 25 25 25 25 25 23 22 23 22 21 20 19 19 18 19 19 19 19 18 18 18 18 18 19 19 19 19 19 19 20 20 20
22 23 24 24 25 25 26 26 27 28 27 26 27 26 26 26 24 24 24 23 22 21 20 20 20 20 20 20 20 20 20 19 19 20 20 20 20 21 21 22 22 22 22
24 23 24 25 25 26 26 27 27 28 27 27 28 27 27 27 26 25 24 25 25 24 22 22 21 21 21 21 21 21 21 21 21 22 22 21 21 21 22 22 22 23 23
24 24 24 25 25 26 26 26 27 27 27 28 28 28 27 27 26 26 25 26 26 25 24 23 23 23 22 22 22 22 22 22 22 22 22 23 22 23 23 23 23 23 24
24 23 23 24 25 26 26 26 27 27 27 28 28 28 28 27 28 27 27 27 27 26 26 25 25 24 23 23 23 23 23 23 23 23 23 23 23 24 24 24 25 25 25
25 24 25 25 26 26 26 27 27 28 28 28 27 28 28 28 29 29 28 28 28 28 28 27 26 25 24 25 24 24 24 24 24 24 24 24 24 24 25 26 26 27 27
24 24 25 26 27 27 26 26 27 28 28 28 28 29 29 29 29 29 29 29 28 28 28 28 26 25 25 26 26 26 26 25 25 26 26 26 26 26 26 27 28 28 29
24 25 25 26 26 26 26 27 26 27 28 28 27 28 28 29 29 29 29 29 28 28 27 27 27 27 27 27 27 27 27 26 27 27 27 27 27 27 28 27 28 28 29
26 26 26 26 26 26 26 26 26 27 28 28 28 28 28 29 28 28 28 28 28 28 27 27 28 28 28 28 28 28 27 27 27 28 28 28 28 28 28 28 28 29 30
26 27 27 26 27 26 26 27 27 26 27 28 29 29 29 28 28 28 28 29 29 28 28 28 28 28 29 28 28 28 28 28 28 28 29 29 29 29 29 29 29 30 30
27 27 27 28 28 27 27 27 27 27 27 27 28 29 29 29 29 29 29 29 29 28 28 28 28 28 28 28 28 28 29 28 28 29 29 29 29 29 29 29 29 29 29
26 27 27 28 28 27 27 27 27 27 28 27 28 29 29 29 29 29 29 29 29 29 29 29 28 28 28 28 28 28 28 28 28 28 28 28 29 29 29 30 30 30 30
26 27 28 27 26 26 26 26 26 26 26 27 28 29 29 29 29 29 29 29 29 29 28 28 27 28 28 28 27 27 28 28 28 27 27 28 28 28 29 29 29 30 30
27 28 27 27 26 25 25 25 25 25 25 26 27 28 27 27 28 28 28 27 27 27 27 28 27 27 27 27 27 27 27 27 27 27 26 26 27 27 28 28 28 28 29
26 26 26 25 24 24 24 25 24 24 24 24 24 25 26 26 26 26 26 25 25 25 26 27 26 26 25 26 26 27 27 26 26 25 25 26 26 27 27 27 27 27 28
26 26 24 24 24 23 23 24 23 23 23 23 23 23 23 24 25 25 25 25 24 25 25 26 26 25 25 25 25 25 25 25 25 25 25 25 25 26 25 26 26 26 26
26 26 24 24 24 24 23 23 23 23 22 21 21 21 21 22 23 24 24 24 25 25 24 24 24 23 23 23 23 24 24 24 24 24 24 24 24 24 24 25 25 25 25
25 25 24 24 23 22 21 21 21 21 21 21 21 20 19 20 21 21 22 23 23 23 23 23 23 23 22 22 23 23 23 23 22 23 23 23 22 22 23 23 23 23 23
23 23 23 21 20 20 20 20 20 20 20 19 19 18 18 18 19 20 20 20 21 21 21 22 22 22 22 22 21 21 21 21 20 21 21 21 20 20 20 19 20 20 20
23 22 21 20 19 18 19 19 18 18 17 17 17 16 16 17 18 19 19 19 19 19 20 20 21 21 21 21 20 20 20 20 20 19 18 18 18 18 18 17 17 17 17
19 19 19 18 17 16 17 16 16 15 15 15 15 15 15 16 16 16 16 16 17 18 18 18 18 19 20 20 19 19 19 18 18 17 17 17 17 17 16 16 15 15 14
16 16 15 15 15 15 15 15 15 14 13 13 13 13 14 14 14 14 14 15 15 16 16 17 17 17 18 18 18 18 18 18 17 17 16 16 16 15 15 14 14 14 13
13 12 12 11 11 12 12 12 11 11 11 11 12 12 12 12 12 13 14 14 14 14 15 15 16 16 16 17 17 17 16 16 16 16 16 16 15 14 14 14 13 12 12
10 9 9 9 9 9 9 9 9 9 9 9 9 9 10 10 11 11 12 13 13 13 13 13 14 14 14 15 15 15 15 15 15 15 15 15 14 13 12 11 11 11 11
8 8 8 7 7 7 7 7 7 7 7 7 7 8 8 8 9 9 10 10 11 11 10 10 11 11 11 12 12 13 13 13 13 13 13 12 12 12 11 11 11 11 12
7 7 6 6 5 5 5 5 5 5 5 6 6 7 7 7 7 7 7 7 8 8 9 9 9 9 10 10 10 10 10 10 11 11 11 10 10 9 9 9 9 10 10

GEFSMA_500_meanwind_156.txt.gz
Wind_Speed
21 22 21 22 23 23 22 23 24 25 24 25 25 25 25 24 25 24 24 24 23 23 22 22 22 21 21 21 20 19 18 18 18 19 19 19 19 19 19 19 20 21 21
23 22 23 23 23 24 24 24 25 26 25 26 26 26 26 26 25 25 25 26 25 25 24 24 23 23 23 23 22 20 20 20 20 20 20 20 20 20 20 20 21 22 22
24 23 23 23 24 25 26 26 26 26 26 27 27 26 26 27 26 26 26 26 26 25 24 24 25 25 25 25 23 22 21 20 20 20 21 21 21 22 22 22 22 23 23
24 24 24 24 24 25 26 26 26 25 26 26 27 26 27 28 27 27 27 26 26 25 26 25 25 26 26 26 25 24 23 23 22 21 22 22 22 22 23 22 22 22 23
25 26 25 25 25 25 26 27 26 26 26 26 26 26 27 28 29 29 29 28 28 27 27 27 26 26 27 27 26 25 25 24 23 23 22 22 22 22 23 23 23 23 23
26 26 26 26 26 26 27 27 27 27 27 27 27 28 28 28 29 30 31 31 29 29 29 28 28 28 28 28 26 25 25 25 24 24 24 23 22 23 24 24 24 24 25
26 26 26 27 27 27 27 27 28 28 28 28 29 29 30 30 30 31 32 31 32 31 30 30 30 29 28 28 27 26 26 26 25 25 25 24 24 23 24 25 25 25 26
26 26 26 27 27 28 28 28 28 28 28 29 30 30 31 31 32 32 33 32 31 30 30 29 29 29 29 28 28 27 27 27 27 26 26 26 26 25 25 25 26 26 27
27 27 26 27 28 28 28 27 27 28 29 29 30 30 30 31 32 31 31 30 29 29 29 29 29 29 29 28 28 27 27 28 27 27 27 27 26 26 26 26 26 26 26
27 27 27 27 27 27 27 27 27 27 28 28 29 30 30 31 31 29 29 29 29 29 28 28 28 29 29 29 28 28 28 28 27 27 27 27 27 26 26 26 26 26 26
27 27 27 27 26 27 27 27 27 28 28 28 29 29 29 29 29 29 29 28 29 29 29 29 29 29 29 29 29 28 28 27 26 26 26 27 27 27 27 26 26 27 27
27 26 26 26 26 26 26 27 27 27 27 27 27 28 28 28 29 29 29 28 29 29 30 29 29 29 29 29 28 28 28 27 27 27 27 26 26 26 26 26 26 27 27
28 27 27 27 27 27 26 26 26 26 26 26 27 27 27 27 28 28 29 28 28 28 28 29 29 29 29 29 28 27 27 27 27 27 26 26 26 26 26 26 26 26 27
27 28 28 28 28 27 26 26 25 25 25 25 25 26 26 26 27 27 27 26 26 27 26 26 27 28 28 27 26 26 26 26 26 26 26 26 26 26 26 26 26 26 27
27 26 26 26 26 26 26 25 24 24 24 24 24 24 24 24 24 24 25 24 24 24 25 25 25 25 25 26 25 25 26 25 25 25 25 26 26 26 26 25 25 26 26
25 25 25 25 24 24 24 23 23 23 23 24 24 23 23 24 23 23 23 23 23 23 23 23 24 24 24 24 24 24 24 24 24 25 25 25 25 25 25 25 25 25 25
25 25 24 24 23 23 22 22 22 22 22 23 23 22 21 21 22 22 22 22 22 23 22 23 23 24 24 23 23 22 23 23 23 23 24 24 23 23 24 24 24 24 24
24 24 24 23 23 22 22 21 21 21 20 20 21 21 21 20 20 20 20 21 22 22 22 22 22 23 23 23 22 22 21 21 21 22 22 23 22 22 23 23 23 22 23
23 23 23 22 22 21 21 21 21 20 19 19 19 19 19 19 19 19 19 20 20 20 20 21 21 21 21 22 22 22 21 21 21 20 20 20 21 22 22 22 22 21 21
21 20 20 20 20 19 19 19 18 18 18 18 17 17 18 18 18 18 18 18 18 19 19 19 19 19 20 20 21 21 21 20 20 20 19 19 19 19 19 20 20 20 20
19 18 18 18 17 17 17 17 16 16 16 15 15 14 15 15 15 16 17 17 17 18 18 18 18 19 19 19 19 20 20 20 20 19 18 18 17 17 17 17 17 17 18
16 16 16 15 15 14 14 15 14 13 12 12 13 13 13 13 14 14 15 16 16 16 16 17 17 18 18 18 17 18 18 19 19 19 18 17 17 16 16 16 16 16 16
14 14 13 12 12 13 12 11 11 11 12 12 11 10 11 11 12 12 13 14 15 15 15 15 15 15 16 16 16 17 17 17 17 18 18 18 17 16 15 16 17 17 16
13 12 11 10 10 10 9 8 8 8 9 10 9 8 9 9 10 10 10 11 12 13 14 14 13 13 14 15 15 16 16 17 17 17 18 17 16 16 16 16 17 17 16
10 10 10 10 9 8 7 7 6 6 7 6 6 6 7 7 8 8 8 9 10 11 11 12 12 12 12 13 13 14 14 15 15 16 16 16 15 15 15 16 16 16 16
9 9 8 8 7 6 6 5 4 4 5 4 4 5 6 6 5 7 7 8 9 10 10 10 11 11 11 11 12 12 12 12 13 13 14 14 14 14 15 15 15 15 15

GEFSMA_500_meanwind_162.txt.gz
Wind_Speed
23 24 24 24 25 25 25 24 24 24 24 25 25 25 24 24 25 24 24 24 24 23 23 24 24 23 23 22 22 22 22 22 22 21 21 21 22 23 22 22 22 23 22
25 25 25 26 25 25 25 25 25 24 24 24 25 25 24 24 25 25 25 25 25 24 24 25 25 25 24 23 23 23 22 22 23 22 22 22 22 22 23 24 24 23 23
26 26 26 26 26 25 25 25 25 26 25 25 25 25 25 25 25 25 25 25 26 25 25 26 26 26 25 25 24 24 24 24 24 23 23 23 22 22 23 23 23 24 24
27 26 26 26 27 26 26 26 27 26 26 26 25 25 26 26 26 27 26 26 25 25 26 27 28 28 27 26 26 26 25 24 24 24 24 23 23 23 24 24 24 24 24
27 26 26 27 26 26 27 27 27 27 27 26 26 26 27 27 26 27 27 27 26 27 26 27 28 28 28 28 27 26 26 26 25 25 24 24 24 24 24 25 25 25 25
27 27 27 27 27 27 27 27 27 27 27 27 27 27 27 27 27 28 28 27 28 27 28 27 28 28 29 29 29 28 27 26 27 26 24 24 25 25 24 25 25 25 24
28 29 29 29 28 28 28 27 27 28 28 28 28 28 27 27 28 28 29 28 28 28 28 28 28 28 29 29 29 28 27 27 26 26 25 25 24 25 25 26 24 25 25
29 29 29 28 28 28 28 27 28 28 28 28 28 27 26 26 28 28 28 28 28 28 28 28 27 28 28 29 29 28 27 26 26 26 25 24 24 24 24 25 25 25 25
29 29 28 28 28 28 28 29 29 28 28 27 27 27 27 27 27 26 27 28 28 28 28 28 28 28 28 28 28 28 27 27 26 26 25 24 23 23 23 24 25 24 24
28 29 29 28 28 28 28 28 28 28 28 27 27 27 27 27 27 26 26 28 28 27 27 27 27 28 28 27 27 27 27 27 26 25 25 25 24 23 24 24 24 24 24
29 29 29 29 28 28 27 27 28 28 28 27 27 26 26 26 27 27 27 26 27 27 26 27 28 28 28 27 26 26 26 26 25 25 25 25 25 25 25 24 23 23 23
29 29 29 28 27 27 27 27 26 26 26 26 25 25 25 25 26 26 26 25 26 26 26 26 27 27 26 27 26 27 27 26 25 25 26 26 25 25 25 24 24 24 23
28 28 27 27 26 26 26 26 26 26 25 25 24 24 25 24 24 25 25 25 25 25 26 26 26 26 25 26 27 27 27 26 26 25 26 26 25 25 24 24 24 24 24
26 26 25 25 25 25 26 26 26 27 26 26 25 25 25 25 25 24 24 25 24 24 24 25 25 25 25 24 25 26 26 26 26 26 26 25 25 24 25 25 24 24 23
25 25 25 24 24 24 25 25 26 26 26 26 25 25 24 24 25 24 24 24 24 24 23 22 23 23 24 23 23 24 24 25 25 25 26 25 24 24 25 24 24 23 23
24 24 24 24 24 24 24 25 25 25 25 25 24 24 23 23 23 24 24 23 23 23 22 23 23 22 22 22 22 23 23 24 25 24 24 23 23 23 23 23 23 23 23
24 24 24 24 23 23 24 24 24 24 24 23 23 24 23 23 23 23 23 22 22 22 22 22 23 23 23 22 22 23 23 23 22 22 22 22 23 23 24 23 23 23 23
23 24 24 24 24 24 24 24 23 23 23 23 23 23 22 22 22 22 22 21 21 21 22 22 22 22 22 22 22 21 21 21 20 20 20 21 22 23 23 23 23 23 23
23 23 23 23 23 23 23 23 22 21 21 22 22 22 22 21 21 21 20 20 20 21 21 21 20 20 21 21 20 20 20 20 20 20 20 20 21 21 22 22 22 22 22
21 22 21 21 21 22 21 21 21 20 20 20 20 20 20 20 19 19 20 20 20 20 19 19 19 19 19 19 19 19 20 20 21 20 20 20 20 20 20 21 21 21 21
20 19 18 18 19 19 19 19 19 19 18 18 18 17 17 17 17 18 18 18 18 18 18 17 18 18 19 18 18 18 18 19 19 19 19 20 20 19 19 20 20 20 20
18 17 17 17 17 17 17 17 17 17 16 16 15 15 15 15 15 16 16 16 16 16 16 17 17 17 17 17 17 17 17 18 18 19 19 19 19 19 19 19 19 19 19
17 17 16 17 17 16 15 15 14 14 14 13 13 13 13 13 13 13 13 13 14 15 16 16 16 16 16 15 16 16 16 17 17 18 18 18 18 18 18 18 18 18 19
16 16 16 16 15 15 14 14 13 12 11 11 11 12 11 11 11 12 12 12 12 13 13 14 14 15 14 14 14 15 15 15 16 17 17 17 17 17 17 17 18 18 19
14 14 14 14 13 13 13 12 12 10 10 10 10 10 10 10 9 9 10 10 10 10 10 11 12 12 12 12 12 12 13 13 14 15 15 15 15 16 16 17 18 18 18
13 13 14 14 13 12 12 12 10 10 10 10 10 9 9 9 8 8 9 9 10 10 11 10 11 11 11 11 10 12 13 13 13 14 14 14 14 15 15 16 17 17 18

GEFSMA_500_meanwind_168.txt.gz
Wind_Speed
23 24 24 24 25 25 25 25 24 25 25 25 25 25 24 25 25 26 26 25 26 25 25 25 24 24 24 24 25 24 24 23 23 22 22 22 22 22 22 23 23 24 24
24 24 25 25 25 25 25 25 25 25 26 26 26 26 26 26 26 27 26 26 26 26 26 25 26 25 24 24 24 25 25 25 24 24 23 23 23 23 23 23 24 25 25
25 25 25 26 26 25 25 25 25 25 26 26 27 27 27 27 27 27 27 26 25 25 26 26 26 26 26 26 25 26 26 25 25 25 25 25 25 25 24 24 25 25 26
25 26 26 26 26 26 26 26 27 27 27 27 27 27 27 28 27 27 26 26 26 26 26 27 27 26 26 26 27 26 27 26 26 25 25 26 26 26 25 25 25 25 26
26 26 27 27 27 27 27 26 27 27 27 27 28 28 27 27 27 27 27 27 27 28 28 28 28 27 26 26 26 27 27 27 26 26 26 26 27 27 26 26 26 26 26
27 27 28 27 27 27 28 27 28 28 28 28 28 28 27 27 27 27 27 27 27 27 28 28 28 29 28 28 29 28 28 29 28 28 28 28 28 28 27 27 26 25 26
27 28 28 28 28 28 27 28 28 28 28 29 28 28 27 28 27 26 26 27 27 27 28 28 28 28 28 28 29 29 29 29 29 29 29 29 29 28 28 27 27 26 26
28 27 28 27 27 27 27 27 27 27 28 28 28 27 27 27 27 26 25 25 25 26 27 28 28 27 27 28 28 28 28 29 29 29 29 29 29 29 28 28 27 27 28
28 28 27 26 26 26 26 26 26 25 26 26 27 26 26 26 26 26 25 25 25 24 25 26 27 26 26 26 28 28 27 27 28 28 28 28 28 29 29 28 28 27 27
28 28 27 26 25 26 26 26 25 25 25 25 25 25 26 25 23 23 24 24 24 24 24 25 26 26 26 27 28 28 27 27 27 27 27 27 28 28 28 29 29 28 28
27 27 26 26 26 26 26 25 26 25 25 24 24 24 24 24 23 22 22 23 23 23 24 24 25 25 25 26 26 27 27 28 28 27 27 28 27 27 27 28 28 28 28
26 26 26 25 25 25 26 25 25 24 24 24 23 23 23 23 23 22 21 22 23 23 24 24 24 24 25 25 25 26 26 26 27 27 28 29 28 27 27 27 27 28 28
26 25 25 24 24 25 25 24 23 23 23 23 23 23 23 23 23 23 22 23 23 23 24 23 23 23 24 24 25 26 26 25 26 27 27 28 27 28 28 28 28 28 28
24 23 23 23 24 24 23 23 22 21 22 23 23 23 23 23 23 23 23 24 23 24 25 24 23 23 23 24 24 25 26 27 26 26 27 28 28 27 28 28 28 28 29
23 23 23 23 22 22 22 22 21 20 21 21 22 22 22 22 22 23 24 25 24 24 25 25 24 24 24 25 24 24 25 26 27 27 27 28 29 29 29 29 29 29 29
23 22 22 22 21 21 20 20 20 19 19 20 20 21 21 22 23 23 23 24 24 24 24 24 24 24 24 24 25 25 25 25 26 27 27 28 28 29 29 29 29 29 30
22 22 21 21 20 20 20 19 19 19 19 19 20 20 21 22 23 23 23 23 23 24 24 24 24 24 23 23 24 25 25 25 25 26 27 27 28 28 29 29 30 30 30
21 21 21 20 20 19 19 19 18 18 18 19 20 20 21 21 22 22 23 23 22 23 23 23 24 24 23 24 24 24 24 24 25 25 26 26 26 27 28 28 29 29 30
21 21 20 20 20 19 19 18 18 18 18 19 20 20 20 21 21 21 21 21 21 21 22 22 23 23 23 23 24 24 24 23 23 24 25 25 25 26 27 28 28 29 29
20 20 19 19 19 18 18 18 18 19 19 19 18 17 18 18 18 18 19 19 20 20 21 21 21 22 23 22 22 23 23 22 22 23 23 24 24 25 26 27 28 28 29
18 18 18 17 17 17 17 17 17 18 17 17 17 17 17 16 16 17 17 17 17 18 18 19 19 20 20 20 21 21 22 22 22 22 22 23 24 24 24 25 27 27 27
16 16 16 16 16 16 16 16 16 16 16 16 16 15 16 15 15 15 15 15 15 16 16 17 17 17 17 18 19 20 21 21 21 21 22 22 22 23 23 24 25 25 25
15 15 15 15 15 15 15 15 15 15 15 15 15 14 14 14 14 13 13 13 14 15 15 15 15 16 16 17 18 19 20 20 20 21 21 21 22 23 23 23 24 25 24
15 15 16 15 15 15 15 15 14 14 14 14 13 12 12 12 12 12 12 12 13 13 13 14 15 16 16 16 17 18 19 19 20 20 20 20 21 22 22 23 23 24 24
14 15 15 15 15 15 15 15 14 13 13 13 12 12 12 12 12 12 11 11 12 12 12 13 13 14 15 16 17 17 18 18 18 18 19 19 20 20 21 22 22 23 23
14 15 15 15 15 15 15 15 15 14 14 13 13 13 12 12 12 12 12 12 11 12 12 13 14 14 15 15 15 16 17 17 17 18 18 19 19 20 20 21 22 22 23

GEFSMA_500_meanwind_174.txt.gz
Wind_Speed
24 25 25 26 26 27 27 28 27 27 27 28 28 27 28 28 28 28 28 28 28 28 27 27 27 27 27 26 26 26 26 27 26 25 24 24 24 24 23 23 22 22 22
25 26 26 27 27 27 27 28 28 28 28 29 29 29 30 30 30 30 30 30 30 30 28 28 28 27 28 27 27 27 27 27 28 26 26 25 26 26 25 25 25 24 25
26 26 27 27 28 28 29 29 28 28 28 29 29 30 30 31 31 31 31 32 31 31 30 29 28 28 29 28 28 28 28 26 27 27 27 26 26 27 26 26 26 26 25
26 26 27 27 29 29 29 29 28 28 28 29 29 30 30 31 31 31 31 31 31 31 30 30 30 30 30 30 29 28 28 27 27 27 27 27 27 27 28 28 28 27 27
26 27 28 29 30 29 29 29 29 28 28 29 29 30 30 29 30 30 30 31 30 30 31 30 30 31 31 30 30 29 28 28 28 28 28 28 28 28 28 29 29 29 28
27 28 29 30 30 30 30 30 29 29 29 29 29 30 30 30 29 29 29 30 30 31 31 30 30 31 31 31 31 30 30 29 29 29 30 29 29 29 29 29 29 29 29
28 29 29 29 30 30 30 30 30 30 29 29 30 30 30 29 29 29 29 29 30 29 30 30 29 30 31 31 32 31 31 31 30 30 31 30 30 29 29 29 30 29 30
28 28 29 29 30 30 30 30 30 30 29 30 30 29 29 28 29 29 28 28 29 28 28 29 29 28 30 31 31 31 31 31 31 31 31 30 30 30 30 30 30 30 30
27 28 29 29 30 30 29 30 30 30 30 29 29 28 28 27 27 28 28 28 28 28 28 29 29 28 30 31 31 33 32 32 32 31 31 31 30 30 31 31 31 31 31
27 28 29 29 30 30 29 29 29 30 30 29 29 28 28 27 27 27 28 29 28 28 27 27 28 28 29 30 31 32 32 32 33 32 31 32 31 31 31 31 31 32 32
26 27 28 28 28 28 28 29 29 30 29 28 27 27 28 28 27 26 27 27 28 28 28 27 28 28 28 30 32 32 32 33 33 33 33 33 32 32 32 31 31 32 32
26 27 27 27 27 27 27 28 27 27 27 26 27 27 27 26 26 26 27 27 27 27 27 26 28 28 28 29 31 32 32 33 34 33 34 34 33 33 32 31 31 31 32
26 26 26 27 26 26 25 26 25 25 26 26 25 24 24 25 26 26 26 26 26 26 26 26 28 30 30 30 30 31 31 31 32 33 33 34 34 34 34 32 31 32 32
25 25 26 26 25 24 24 24 24 23 23 24 24 24 24 25 26 26 25 25 25 26 26 27 28 29 30 31 30 31 31 31 32 33 33 34 34 34 34 34 33 33 32
25 25 25 25 24 23 23 22 23 23 23 23 23 24 24 24 24 24 24 25 25 25 26 27 27 28 29 30 31 31 31 32 32 33 33 33 33 34 34 34 33 33 32
25 25 25 24 24 23 22 21 21 21 22 22 22 22 23 23 23 24 24 25 26 26 26 27 28 28 28 30 30 31 31 32 32 32 32 33 33 34 34 34 34 33 34
24 24 24 24 23 23 22 21 21 21 21 21 21 21 22 22 22 22 23 24 25 26 26 27 28 29 29 28 30 30 30 30 30 31 31 31 32 33 33 33 33 33 33
23 23 23 23 23 23 22 22 21 21 21 21 21 21 21 22 22 21 21 22 24 24 25 26 27 27 27 27 27 28 28 30 31 30 30 30 30 31 31 32 33 33 33
21 21 22 22 22 22 22 22 20 20 20 20 20 20 20 20 20 20 21 21 22 23 24 24 24 25 25 25 25 26 27 28 29 29 29 29 30 30 30 31 31 32 33
20 20 20 20 20 20 20 20 20 19 19 18 18 18 19 18 19 20 20 20 21 22 22 22 22 22 22 23 24 25 25 25 26 28 28 29 29 29 30 30 30 31 32
19 18 18 18 19 19 19 19 19 19 19 18 18 18 18 18 18 19 19 20 20 21 20 20 21 21 21 22 22 23 24 24 25 26 25 26 27 28 28 29 29 29 30
17 17 17 18 18 19 19 19 19 19 18 18 18 18 18 18 18 19 19 19 19 18 18 18 18 19 19 20 20 22 22 23 23 24 24 25 25 26 27 27 28 28 28
17 17 17 18 18 19 19 19 19 19 19 18 18 17 17 17 17 17 17 16 16 16 16 16 17 18 18 19 19 20 21 22 22 23 23 23 24 26 26 26 27 28 28
16 16 17 18 18 18 19 19 19 19 19 18 18 17 17 17 16 16 16 16 16 16 17 17 17 18 18 19 19 19 20 20 21 22 23 23 22 23 25 26 26 27 28
16 16 17 17 18 19 19 19 19 19 19 19 18 17 17 17 17 16 17 16 16 17 17 17 17 17 18 19 20 21 20 20 20 21 21 22 22 23 24 25 24 25 26
16 16 16 17 18 19 19 19 20 20 20 19 18 18 18 18 18 17 17 17 17 17 17 18 18 18 18 18 18 19 20 20 20 20 22 22 22 23 23 24 24 25 25

GEFSMA_500_meanwind_180.txt.gz
Wind_Speed
26 26 27 27 27 28 28 27 27 27 27 27 27 27 27 27 28 28 28 28 29 29 28 29 28 28 28 28 28 28 29 29 28 27 27 27 26 26 26 25 25 24 24
27 27 27 27 28 28 29 29 29 28 28 28 29 29 29 29 29 29 30 29 29 28 28 28 29 29 29 29 29 29 29 29 29 29 28 28 28 28 28 27 27 26 25
28 28 28 29 29 30 30 29 29 29 30 30 30 31 31 31 31 30 30 29 29 29 28 28 29 30 30 30 31 30 31 31 30 30 30 30 29 29 29 29 28 27 27
29 28 28 29 30 31 31 30 31 31 31 31 31 31 31 30 31 32 32 31 31 31 30 30 30 30 30 30 31 31 32 32 31 30 29 30 31 30 30 29 29 29 28
28 28 29 30 31 32 32 32 31 32 32 32 32 32 32 31 31 31 31 31 32 32 31 31 30 30 30 30 31 31 32 32 31 31 30 30 30 31 31 30 30 30 29
28 28 29 30 31 31 31 31 32 31 32 33 33 33 32 31 32 31 31 31 31 32 31 31 30 30 30 30 30 31 31 32 32 31 31 31 31 31 31 30 30 31 30
27 28 29 30 31 31 31 31 31 31 31 32 32 32 31 31 31 32 31 31 30 31 31 31 30 31 31 30 31 31 31 33 33 33 32 32 32 32 31 31 30 31 31
26 27 28 29 29 30 30 30 30 30 31 31 31 31 30 31 32 31 31 31 30 31 30 30 30 31 31 31 31 31 30 31 33 34 33 32 32 32 31 31 30 30 31
26 26 26 27 28 29 28 28 28 29 30 30 30 30 29 30 31 31 30 30 30 31 30 30 30 30 31 31 32 32 32 32 32 33 34 34 33 33 32 32 31 31 31
25 25 26 26 27 27 27 28 28 28 28 28 29 29 29 29 30 30 30 30 29 29 30 30 29 30 31 31 32 32 32 34 34 34 34 34 34 34 33 33 33 32 32
25 25 25 26 26 26 26 27 27 27 28 27 27 27 27 28 29 28 28 30 29 29 30 30 29 29 30 30 31 31 33 34 34 33 34 34 34 34 34 34 33 33 33
25 25 26 26 26 26 26 26 27 27 27 26 26 26 26 27 27 27 27 28 28 28 29 29 30 30 30 31 30 31 32 33 33 33 34 34 35 35 35 34 34 34 33
26 26 26 25 25 25 25 26 27 26 26 26 26 26 26 27 26 26 26 27 27 28 29 28 29 30 31 31 31 31 32 33 33 33 34 35 35 36 36 35 35 35 35
24 25 25 25 25 25 25 26 26 26 26 25 25 25 24 24 24 24 25 26 26 26 27 28 28 29 31 31 31 31 32 33 34 34 35 34 35 36 36 37 36 36 36
24 24 24 24 25 24 25 25 25 25 25 24 24 23 22 22 23 23 23 25 25 25 26 27 26 27 28 29 30 30 32 33 33 34 34 34 35 36 36 37 36 36 36
23 23 24 24 24 23 23 24 24 24 24 24 23 21 20 20 21 21 21 21 22 23 24 24 24 24 25 26 28 29 31 31 32 32 33 34 34 34 34 34 34 35 36
22 22 22 23 23 22 22 23 23 23 23 23 22 21 20 20 20 20 20 20 20 22 22 22 22 22 23 24 26 28 29 31 32 32 32 33 33 34 34 35 35 36 36
21 22 22 21 21 21 22 22 22 22 22 22 22 21 20 19 19 18 18 18 19 20 22 23 23 23 23 24 25 26 27 29 30 30 31 31 32 34 34 35 36 36 36
20 21 20 19 19 19 20 21 21 21 21 21 20 19 18 18 18 18 17 17 18 19 21 21 22 23 23 23 24 25 26 27 29 29 30 31 32 34 35 36 35 35 34
19 19 19 18 18 19 19 19 20 20 20 20 19 18 17 17 17 17 17 18 18 18 18 19 21 22 22 22 22 24 25 26 27 28 28 30 31 32 33 34 34 33 33
18 19 18 17 18 18 18 19 19 19 19 19 19 18 17 17 18 17 18 19 20 20 20 21 21 21 22 22 21 22 23 24 25 26 28 29 29 29 30 31 32 32 33
17 17 17 17 18 18 18 19 20 20 20 20 19 19 18 18 17 17 18 19 19 20 20 20 20 20 20 20 20 20 21 22 23 24 25 26 27 27 28 29 30 31 32
16 16 16 17 18 18 19 19 20 20 20 20 20 19 18 18 18 17 18 18 18 19 19 19 19 19 19 19 20 20 20 21 21 23 23 24 25 25 27 27 28 29 30
16 16 17 18 18 18 19 19 19 19 20 20 19 19 19 19 19 18 18 18 19 19 19 19 19 18 18 18 19 19 19 19 20 21 21 22 24 24 25 26 27 28 29
16 16 17 17 18 18 18 18 18 19 19 19 20 20 20 20 19 19 19 19 19 19 19 19 18 18 18 18 18 18 18 19 19 20 21 21 22 23 24 25 27 27 28
17 17 17 17 17 17 18 18 19 20 20 20 20 21 21 21 20 19 19 19 19 19 19 19 18 19 18 18 18 19 19 20 20 21 22 23 23 23 24 25 26 27 27

GEFSMA_500_meanwind_186.txt.gz
Wind_Speed
25 25 26 26 27 26 27 28 28 28 28 28 28 28 28 28 29 28 28 28 28 29 29 28 28 28 28 28 28 28 28 28 29 30 30 31 30 29 29 28 28 28 27
25 26 26 26 27 28 29 29 29 29 28 28 28 29 29 29 28 28 29 29 29 29 29 29 29 29 29 29 29 30 29 30 30 31 31 32 32 31 31 29 29 28 28
27 27 27 27 28 28 29 29 29 29 29 29 29 29 30 30 29 29 29 29 30 29 29 29 30 30 30 30 30 30 31 31 31 31 31 32 32 32 32 31 29 28 28
27 28 28 28 28 28 28 29 29 29 30 30 30 30 30 30 31 30 30 31 30 29 29 30 31 32 31 31 31 31 30 31 31 31 31 31 32 33 33 32 31 30 30
27 27 27 28 28 28 28 29 29 30 30 30 30 30 30 30 30 31 30 31 31 31 30 29 30 32 32 32 32 32 32 31 31 31 31 31 32 32 33 33 33 32 32
26 27 27 27 28 28 28 29 29 29 30 30 30 30 30 30 30 30 31 31 31 32 32 30 30 31 32 32 31 31 32 32 31 31 30 30 31 32 34 33 34 34 34
26 27 28 27 28 28 29 29 29 29 29 30 30 30 30 30 30 30 30 31 31 31 32 31 30 30 30 31 31 30 31 32 31 31 31 31 31 31 32 35 35 35 35
26 27 27 28 29 29 29 30 29 29 30 30 30 30 29 29 29 30 30 29 29 30 31 30 30 30 29 31 31 30 30 31 31 31 31 31 31 31 32 33 35 35 36
26 27 27 28 29 30 29 29 29 30 30 30 31 31 30 28 27 28 29 29 29 29 29 28 29 29 29 31 31 30 29 30 32 32 31 32 32 31 32 31 31 33 34
26 26 27 28 29 29 29 29 29 29 30 30 30 30 29 28 27 26 26 26 27 27 27 27 28 27 27 29 30 31 30 30 31 31 31 32 32 32 31 32 31 32 34
26 27 28 28 28 28 28 28 28 28 29 29 28 28 28 28 28 27 25 25 26 25 25 26 26 27 27 28 29 31 31 31 31 31 32 32 33 33 32 33 32 32 34
26 27 27 27 27 27 27 26 26 27 28 27 27 27 27 28 28 26 25 24 24 24 24 24 24 25 26 26 28 29 30 31 31 32 33 34 34 34 33 33 34 34 34
25 26 26 26 26 26 26 26 26 26 27 27 26 27 28 28 26 26 25 24 23 23 23 23 24 24 26 25 25 27 28 30 31 32 32 34 35 36 35 34 35 35 35
24 24 25 25 26 26 26 26 27 27 27 26 26 27 28 27 25 25 24 23 21 21 21 22 23 24 25 25 24 25 27 28 30 32 32 32 34 35 35 35 35 36 37
23 23 24 25 25 26 26 26 26 26 26 26 26 26 27 26 25 24 23 22 21 21 20 22 22 23 23 24 23 25 26 27 28 30 32 32 33 33 34 34 35 36 36
21 21 22 23 24 25 26 26 26 26 25 25 25 25 25 24 23 22 21 21 21 21 20 21 22 23 23 23 23 25 25 26 27 28 30 31 32 33 33 34 34 35 36
20 20 21 22 23 24 24 25 25 24 24 25 25 25 24 24 23 22 22 21 21 21 21 21 22 22 23 23 24 25 25 26 26 26 27 28 29 31 32 34 34 35 36
20 21 21 22 23 24 24 25 25 24 24 24 24 24 24 23 22 22 21 21 20 20 20 20 21 22 23 23 24 25 25 26 26 25 26 27 27 29 31 33 34 35 35
19 20 22 22 23 24 24 24 24 24 24 24 24 24 23 22 21 21 21 20 20 20 21 21 21 21 21 22 23 24 24 25 25 25 25 26 26 27 28 31 33 34 35
20 21 21 22 23 23 23 23 23 23 23 23 22 22 22 22 22 21 21 20 20 21 21 21 21 21 21 22 22 23 23 23 23 24 25 26 26 27 27 29 31 32 33
20 21 21 22 22 22 23 23 22 22 22 22 22 22 22 23 23 23 22 21 21 21 21 21 21 21 21 22 22 23 23 23 24 24 25 25 26 27 28 29 29 30 32
20 21 21 21 22 22 22 22 22 22 22 23 23 23 22 23 23 23 23 22 22 22 21 21 21 21 21 21 22 22 23 23 24 24 24 24 25 25 26 27 28 29 30
20 20 21 21 21 22 22 21 22 22 23 23 23 23 23 23 24 23 23 23 23 22 22 21 21 21 21 21 22 22 21 22 22 23 24 23 24 24 25 25 26 27 28
19 19 20 21 21 21 22 22 22 23 23 23 23 23 24 24 25 25 24 23 23 23 23 22 22 22 22 23 22 22 21 21 22 23 24 23 24 24 24 24 25 26 27
18 18 20 21 21 21 22 22 23 23 23 24 24 24 25 25 25 25 24 22 22 22 23 23 23 23 23 22 22 21 22 22 21 22 23 23 24 24 24 24 25 26 26
17 18 19 20 21 21 21 22 23 23 24 25 25 25 25 25 25 24 24 23 23 22 23 23 23 23 22 22 22 22 22 22 22 22 23 24 24 24 25 26 26 26 26

GEFSMA_500_meanwind_192.txt.gz
Wind_Speed
22 23 23 23 22 22 23 23 23 24 25 25 26 26 25 25 26 25 25 26 26 27 28 28 28 28 28 28 28 27 28 28 29 29 28 28 28 28 28 28 28 29 29
23 23 23 23 23 23 23 24 25 25 25 25 26 27 26 26 26 26 26 26 26 27 28 28 29 30 29 29 29 29 30 30 30 30 30 30 30 30 30 30 29 30 31
24 23 22 23 23 24 24 25 25 25 26 26 26 26 26 25 25 25 26 26 27 28 29 29 30 29 31 31 30 31 31 32 32 31 31 31 31 31 31 31 31 31 31
23 22 23 23 24 25 25 25 25 25 25 25 26 26 25 25 25 26 26 27 27 28 29 30 30 31 32 31 31 32 31 32 33 33 34 34 33 33 32 32 33 32 32
24 24 24 25 25 26 25 26 26 26 26 26 26 26 25 25 26 26 26 27 27 28 29 30 31 32 33 33 32 32 33 33 34 34 34 35 34 34 33 34 34 34 34
25 25 24 24 25 25 26 26 26 26 26 26 26 26 26 26 26 26 26 27 27 28 29 29 31 32 32 33 33 32 32 34 35 34 34 34 34 34 35 35 35 35 34
24 24 24 24 24 25 25 26 25 25 26 26 25 25 25 26 26 26 27 27 28 29 30 30 30 31 31 32 33 33 33 33 33 35 35 35 35 34 34 35 35 35 34
24 25 24 24 25 25 25 25 25 25 25 25 24 24 25 25 26 27 28 28 28 28 28 29 29 29 30 30 31 32 32 33 33 35 35 34 34 35 35 36 36 36 36
24 23 23 23 24 24 24 24 25 24 24 25 25 25 24 24 25 26 27 27 27 27 28 27 27 28 28 29 30 31 31 32 32 34 34 34 35 35 35 36 36 36 37
24 24 23 24 25 24 24 24 24 24 24 24 24 24 25 25 24 24 25 26 26 27 27 27 27 27 28 28 28 29 30 32 32 32 33 33 34 34 35 36 36 36 36
23 23 23 24 25 24 23 23 23 23 23 23 23 24 25 25 25 25 25 25 25 26 27 27 27 26 27 28 28 29 29 30 31 32 33 34 34 34 34 35 36 35 36
22 23 24 23 22 22 22 22 22 23 23 24 24 24 25 25 25 25 25 25 25 24 25 26 26 25 26 27 28 29 29 30 30 31 32 34 35 35 36 36 36 36 36
22 23 23 22 21 22 21 22 22 23 23 23 23 23 24 25 25 25 25 25 24 24 24 24 24 25 25 26 27 28 29 29 30 31 32 32 34 34 35 36 38 38 38
21 21 21 20 20 21 21 21 22 22 23 23 23 24 24 25 25 25 25 25 24 23 23 23 23 24 25 25 26 28 28 29 30 32 32 32 34 35 35 35 36 37 38
18 18 18 19 20 21 21 21 21 22 22 23 24 25 25 25 26 26 25 24 23 22 22 22 22 23 24 25 26 27 28 29 30 31 33 34 34 34 35 35 35 36 38
17 18 19 20 20 21 22 21 21 22 22 23 23 23 24 25 26 26 24 24 23 22 22 22 22 23 24 24 25 27 27 28 30 31 33 34 34 34 35 36 35 36 37
17 18 19 20 21 21 21 21 22 22 22 23 23 23 23 24 24 24 24 23 23 22 22 21 21 22 22 23 24 26 27 28 29 30 31 32 33 34 34 35 35 36 37
18 18 18 19 20 20 21 21 22 22 23 23 23 23 23 23 23 23 23 22 22 22 22 21 21 21 22 23 24 25 26 27 28 28 30 31 32 34 35 35 36 36 36
17 18 18 18 19 20 20 21 21 22 23 23 24 24 23 24 24 24 23 23 23 23 23 23 22 22 23 23 24 25 27 27 28 28 29 30 31 32 33 35 35 36 36
16 18 18 18 19 20 20 20 21 22 23 23 24 24 24 24 24 24 24 24 24 23 23 23 23 23 23 24 24 24 25 27 28 29 29 30 30 31 31 32 33 35 36
16 16 16 17 18 19 20 20 21 22 22 23 23 24 24 24 25 25 25 24 24 23 23 23 23 23 23 24 24 25 25 26 27 28 28 28 29 30 30 31 31 32 35
14 15 16 16 17 18 19 20 21 21 22 23 24 24 24 24 25 25 25 24 24 24 24 24 24 24 24 24 24 24 24 25 26 27 27 28 29 28 28 29 30 31 33
13 14 15 15 17 18 19 20 21 22 23 23 24 24 24 25 25 24 24 24 24 24 24 24 24 24 24 23 23 24 25 25 25 26 26 27 28 28 29 30 31 31 32
13 14 14 15 16 18 19 20 21 22 23 24 24 24 24 25 25 24 24 24 24 23 23 24 24 23 23 24 24 24 25 25 25 26 26 27 27 28 28 28 30 31 32
12 13 13 15 16 18 19 20 21 21 23 24 24 24 24 24 24 24 24 24 23 23 22 22 23 23 23 23 23 23 24 24 25 24 26 27 26 27 28 29 29 30 31
12 13 14 15 17 18 19 20 21 22 23 24 24 24 24 25 25 24 24 23 23 22 22 21 21 21 22 22 22 22 23 23 23 24 26 27 27 28 28 28 29 30 30

GEFSMA_500_meanwind_198.txt.gz
Wind_Speed
23 23 24 24 24 24 24 24 24 24 25 25 25 25 26 26 26 26 26 26 26 26 26 26 27 26 26 27 28 28 28 28 29 30 29 29 29 29 29 28 28 28 28
24 24 23 23 23 24 24 24 25 25 26 26 26 26 26 26 27 26 27 27 27 27 27 27 27 28 28 29 29 30 30 30 30 31 30 30 30 31 31 30 30 30 30
25 24 23 24 23 24 24 25 25 26 26 25 26 26 27 27 27 26 26 27 28 28 28 28 28 29 29 30 30 31 32 32 32 32 32 32 31 31 32 32 32 32 32
25 24 24 24 25 25 25 25 27 26 26 26 27 28 27 27 27 27 27 27 27 28 28 28 28 28 29 30 31 31 32 33 33 33 33 34 34 33 34 34 34 34 34
25 25 25 25 26 26 25 25 26 26 26 27 27 27 28 28 28 28 28 28 28 28 28 28 28 28 29 30 31 32 33 34 34 35 35 35 35 35 35 36 36 36 35
27 25 25 26 26 26 26 27 27 27 27 27 27 27 27 28 27 27 27 27 27 27 28 28 29 29 29 30 32 32 33 34 33 35 35 35 36 36 36 36 37 37 37
28 26 26 26 26 26 26 27 26 27 27 27 26 26 26 26 26 26 27 27 27 27 28 28 29 30 30 31 32 33 33 35 34 35 35 35 36 37 37 37 38 38 38
27 27 27 27 26 27 27 27 26 26 26 26 26 25 25 25 26 26 27 27 26 27 28 29 29 30 31 32 33 33 33 34 35 35 36 36 36 37 37 38 38 39 39
27 27 27 27 26 27 26 26 25 25 25 26 25 25 25 25 26 27 27 27 27 28 29 29 29 30 30 31 31 33 34 34 35 35 34 35 36 36 37 38 38 39 39
26 26 26 26 25 24 24 24 25 25 25 25 25 25 26 26 26 26 27 28 28 29 29 29 29 30 30 31 31 31 32 33 34 34 34 35 35 35 37 37 37 38 39
24 24 24 24 24 24 24 25 25 24 24 25 25 25 26 26 26 27 27 28 29 29 30 30 30 30 30 30 30 31 31 31 32 33 33 34 36 36 36 37 36 37 38
22 23 23 23 23 23 23 23 24 24 25 25 25 26 26 27 27 27 27 27 29 30 31 31 31 30 31 31 31 30 30 31 32 33 33 34 35 36 36 37 37 37 38
22 22 22 22 21 21 21 21 22 24 24 25 25 26 26 27 28 28 27 28 29 29 30 30 29 29 30 30 30 30 30 30 31 33 33 34 35 35 36 37 38 39 39
20 20 20 20 20 21 21 21 22 22 24 25 26 26 26 27 27 28 29 29 29 28 28 28 28 28 28 29 29 29 30 30 31 32 33 34 35 35 36 37 38 39 39
19 19 19 20 20 21 21 22 23 23 24 25 26 26 26 26 27 27 28 29 28 27 26 26 27 27 27 27 28 29 29 30 31 33 34 34 34 35 36 37 37 38 39
19 19 19 19 20 21 22 22 22 23 24 25 25 26 26 25 26 26 27 27 28 27 26 25 26 26 26 27 27 28 29 30 31 32 34 34 34 35 36 37 38 38 39
18 18 18 19 20 21 22 22 22 22 23 24 24 24 24 25 25 25 25 26 27 26 26 25 25 25 25 26 26 27 28 29 30 31 32 33 34 35 36 37 38 39 39
17 18 18 18 19 20 21 20 20 21 22 23 23 23 24 24 23 24 25 25 25 26 25 24 23 23 24 25 26 27 28 29 30 31 32 33 34 35 35 36 37 38 38
16 17 17 18 18 19 19 19 20 20 21 22 22 22 23 23 23 24 24 24 24 24 24 24 24 24 24 25 26 27 27 27 28 29 31 31 32 33 34 35 36 37 38
16 17 17 17 17 18 19 19 20 21 22 22 22 23 24 24 24 23 23 23 24 24 24 24 24 25 25 25 25 26 26 27 28 30 31 32 33 33 34 35 36 37 38
16 15 15 15 16 17 18 19 20 20 21 23 23 23 24 24 24 24 23 24 24 24 25 24 24 24 25 25 25 26 26 27 28 30 31 32 33 34 35 36 36 36 36
14 14 14 14 15 17 17 19 20 20 21 22 22 23 23 23 24 24 24 25 25 25 25 25 24 24 24 24 24 24 25 25 25 27 29 30 31 31 32 32 34 35 35
14 14 14 14 16 17 17 19 19 20 21 22 23 22 22 23 23 24 25 25 25 25 25 25 25 24 24 23 23 23 23 24 25 25 26 26 28 29 30 32 33 34 34
14 13 13 14 15 16 18 18 19 21 22 22 22 22 22 23 23 24 25 25 25 25 26 26 25 23 23 23 23 23 23 23 24 25 25 25 26 27 29 31 32 34 34
14 13 13 14 15 16 18 18 19 20 21 22 22 22 23 24 24 24 25 25 25 26 25 25 24 23 23 23 23 23 23 24 23 23 24 24 25 26 27 29 31 32 33
13 12 12 13 14 16 17 18 19 20 21 21 22 23 24 24 24 25 25 25 24 24 24 23 23 23 22 22 22 22 23 23 24 24 24 24 24 25 26 27 29 31 32

GEFSMA_500_meanwind_204.txt.gz
Wind_Speed
25 24 24 24 24 25 24 24 24 24 23 23 23 23 23 23 23 23 24 24 25 24 25 25 25 26 27 27 27 27 28 28 29 30 31 30 30 30 30 30 31 31 32
26 25 24 24 24 25 25 25 24 24 24 24 24 24 24 25 25 25 24 25 24 25 25 26 26 26 27 28 28 28 28 29 30 31 31 32 32 32 32 32 32 32 32
27 26 25 25 26 25 25 26 26 24 24 25 25 25 25 26 26 25 25 25 25 25 25 25 26 26 26 27 28 28 29 29 30 31 32 33 33 33 34 34 33 33 34
27 27 27 26 26 26 26 26 26 25 25 25 25 25 26 26 26 25 25 25 25 26 26 27 27 27 27 29 29 28 29 29 30 31 32 33 34 35 35 35 35 35 34
29 29 28 28 28 28 27 26 26 26 26 26 26 26 26 26 26 26 25 25 26 27 27 27 27 27 28 28 29 29 30 31 31 31 32 33 34 35 36 37 37 37 36
29 29 29 29 29 29 28 28 27 26 26 27 27 26 26 27 27 26 26 25 26 26 27 27 27 28 28 28 29 30 30 31 32 32 32 34 35 36 36 38 38 38 37
30 30 31 29 29 29 28 28 27 26 26 27 26 26 27 27 28 27 27 26 27 27 27 28 28 29 29 29 30 30 30 31 33 34 34 34 35 37 38 39 39 39 39
31 31 31 30 28 28 29 28 26 26 27 27 27 27 27 28 27 27 27 28 28 28 28 28 29 29 29 30 30 31 31 32 33 34 35 36 36 37 39 39 39 40 39
29 29 29 28 26 26 26 26 26 27 27 27 27 27 28 28 28 27 28 28 28 29 29 29 29 29 29 30 31 31 32 33 33 34 36 36 37 38 39 40 39 39 39
27 27 26 25 24 24 24 24 25 25 26 26 27 27 27 28 28 28 29 29 29 29 29 29 30 30 30 31 32 33 33 34 34 35 36 38 38 39 40 40 40 40 40
27 25 25 25 24 23 23 23 24 24 24 25 26 26 27 27 28 28 29 29 29 29 29 30 31 31 31 32 33 34 34 35 35 36 37 38 39 39 40 41 41 40 40
24 24 23 23 22 21 22 22 23 23 23 23 24 24 25 26 28 28 28 29 30 30 30 30 30 31 32 32 32 33 34 35 35 36 36 37 38 39 40 41 41 42 42
22 21 22 22 21 20 21 21 21 22 22 23 23 23 24 26 27 28 29 30 30 30 29 29 30 31 32 32 32 32 33 34 35 35 35 36 37 38 39 40 40 41 42
21 21 20 20 19 19 20 21 21 21 21 21 22 23 23 25 26 27 28 29 29 29 29 29 30 31 32 32 32 32 32 33 34 35 35 35 36 37 38 39 40 41 42
19 19 18 17 18 18 18 19 20 20 21 21 22 22 23 24 25 26 28 28 29 28 28 28 29 30 31 32 32 32 32 33 33 34 34 35 36 37 37 39 40 41 41
18 17 16 17 17 17 17 18 19 19 20 20 22 22 22 23 24 26 27 27 27 27 27 28 29 29 30 31 31 32 33 33 33 33 33 34 35 36 37 38 39 40 41
17 16 15 17 17 16 17 17 18 18 18 19 20 21 22 23 23 23 24 24 25 25 25 25 26 27 28 28 29 29 30 31 32 33 33 34 34 36 37 38 38 39 40
15 15 15 16 16 16 16 17 17 17 17 18 19 20 21 21 22 22 21 22 22 22 23 23 25 26 27 27 27 28 29 29 31 32 33 33 34 35 37 38 39 40 41
14 15 15 15 15 15 15 16 16 17 16 17 19 20 20 20 20 20 20 21 21 22 23 24 25 26 26 26 26 26 27 27 28 30 31 32 34 35 35 37 39 41 42
14 14 14 15 15 15 14 15 15 15 16 18 19 19 19 19 19 20 20 20 21 22 23 23 24 24 24 25 25 24 25 25 26 27 29 30 32 34 34 35 37 38 41
13 14 14 14 14 14 15 15 15 15 16 17 18 17 18 18 19 19 19 20 21 22 23 23 23 23 23 24 24 24 24 24 25 27 28 29 30 31 33 34 34 36 37
14 14 14 13 14 15 15 15 14 15 16 17 17 17 18 18 18 18 19 20 21 22 22 23 23 23 23 23 23 23 23 23 23 24 26 26 27 29 30 32 34 35 36
14 14 13 13 14 15 15 14 14 14 15 15 15 16 17 18 18 19 19 20 21 21 22 23 22 23 23 23 23 23 23 23 23 23 24 25 26 27 29 31 32 34 35
14 13 13 13 14 14 14 14 14 14 15 15 16 17 18 18 19 19 19 20 20 22 23 23 23 23 23 23 23 23 23 22 22 22 23 24 25 26 27 28 30 32 33
14 13 13 13 14 14 15 14 14 14 15 16 16 17 18 18 19 19 19 20 21 21 22 23 23 23 23 22 22 22 22 22 23 23 23 24 25 26 26 27 28 29 31
14 13 13 14 14 15 15 15 15 15 16 15 16 17 18 18 19 19 19 20 21 21 22 23 23 23 22 21 21 21 22 22 23 23 23 23 24 25 25 26 26 27 28

GEFSMA_500_meanwind_210.txt.gz
Wind_Speed
28 28 27 27 27 26 26 26 26 25 24 24 24 24 24 23 23 23 23 23 22 22 23 22 22 22 23 23 23 24 24 25 26 27 28 28 28 29 29 29 30 30 30
30 30 29 28 28 27 27 27 26 25 25 25 25 25 24 24 23 24 23 23 23 23 23 24 24 23 23 24 24 24 25 26 26 27 28 29 29 29 30 30 29 30 30
29 30 30 28 28 28 27 27 26 26 26 26 25 25 24 24 23 24 24 23 23 24 24 24 24 24 24 24 24 25 25 26 26 27 28 29 29 30 31 31 31 30 30
30 30 30 29 28 28 27 26 26 26 27 26 25 25 24 23 23 23 24 24 25 25 25 26 25 25 25 24 24 25 25 26 27 28 28 29 30 30 31 31 32 32 31
30 30 30 29 28 28 28 27 27 27 26 25 25 25 25 24 24 24 24 25 26 26 26 27 26 26 26 25 25 25 26 27 27 28 29 30 30 31 32 32 32 32 32
30 30 29 29 29 28 28 28 27 27 26 25 26 25 25 25 25 25 25 26 26 26 26 27 26 26 27 27 27 27 27 27 29 29 29 29 30 31 32 33 34 34 34
29 29 29 29 28 28 27 27 27 26 26 25 25 25 25 25 25 26 26 26 26 26 26 26 26 26 27 27 27 27 28 28 29 30 30 30 31 32 33 34 35 35 35
28 28 28 27 27 26 25 24 25 25 25 25 25 25 25 25 25 25 26 26 26 26 26 26 27 27 27 28 28 28 28 28 29 31 31 32 32 33 34 34 35 36 36
27 26 26 25 25 24 25 24 24 25 24 25 25 24 23 24 25 25 25 25 26 26 26 26 26 27 27 28 29 30 30 30 30 31 32 33 34 35 35 36 36 37 38
25 25 25 24 24 24 24 24 24 23 24 24 24 24 24 24 24 24 25 26 26 26 26 26 26 27 28 29 29 30 30 31 32 33 34 34 35 36 37 38 38 38 39
23 23 24 23 23 24 24 24 24 23 24 24 24 24 24 24 25 25 24 25 26 26 27 27 28 28 29 29 30 30 31 32 33 34 34 34 35 36 37 38 38 39 40
22 22 23 23 23 24 23 23 23 23 23 23 24 24 24 24 24 24 25 26 27 27 27 28 28 29 30 30 31 31 31 32 33 34 35 35 36 37 38 38 38 39 40
22 22 22 22 23 23 23 23 23 23 23 23 23 23 24 25 24 24 25 26 26 27 28 28 29 29 30 30 31 31 32 32 32 33 35 35 36 37 38 39 39 39 40
21 22 21 21 21 22 23 23 23 23 22 22 22 22 23 24 24 24 24 25 25 25 26 28 29 30 30 30 31 31 32 32 31 32 33 34 34 35 36 37 39 38 39
21 21 21 21 21 21 22 22 22 22 22 22 22 22 23 23 24 24 24 25 26 26 26 27 28 28 29 29 30 30 31 31 31 31 32 32 33 35 36 36 37 38 38
20 21 20 20 21 21 21 20 21 21 21 22 21 20 21 22 23 23 24 25 25 26 26 26 26 27 28 29 30 29 29 30 31 31 31 32 33 34 35 36 36 37 38
20 20 19 19 19 20 20 20 20 20 20 20 20 20 21 21 22 23 23 24 24 24 23 24 24 25 27 27 27 28 28 29 30 31 31 32 32 34 35 35 36 37 37
19 19 19 19 18 18 19 19 19 19 19 18 18 19 20 20 21 22 22 23 23 23 24 24 24 24 25 25 26 27 28 29 29 30 30 31 32 32 34 35 36 37 38
19 19 19 18 18 17 17 17 18 18 17 17 17 18 19 19 20 20 20 21 22 23 23 24 24 24 25 25 26 27 27 27 27 29 29 29 29 30 32 33 34 35 37
19 18 17 16 16 16 15 15 15 16 16 17 17 18 18 17 18 19 20 21 21 22 23 23 24 23 24 24 24 25 25 26 26 26 26 27 27 28 29 31 32 33 34
17 17 17 16 16 14 13 14 15 15 15 15 15 16 16 16 17 18 19 19 20 20 21 22 22 22 23 23 23 23 23 23 24 25 24 25 25 26 27 28 30 32 33
16 17 16 15 15 14 14 14 15 15 14 14 14 14 15 15 16 17 18 19 19 19 19 20 20 21 22 22 22 22 21 21 21 22 22 23 24 24 25 26 28 29 30
16 16 15 15 15 14 14 14 15 14 14 14 14 14 15 16 17 17 17 18 18 18 19 19 20 20 20 20 20 20 20 20 21 21 21 22 23 23 24 25 26 28 30
16 16 15 14 14 14 15 15 15 15 14 14 14 15 16 16 16 16 16 17 17 18 19 19 20 19 19 19 20 20 20 21 21 22 22 21 22 23 24 25 26 27 28
16 15 15 16 15 15 16 16 15 15 15 15 15 15 16 16 16 17 17 17 17 18 18 19 19 19 20 20 21 21 21 20 20 21 22 22 22 22 23 24 25 26 27
15 15 15 16 16 15 15 15 16 16 16 16 16 15 15 15 16 17 17 18 18 18 18 18 19 19 20 21 21 21 20 20 20 20 21 21 21 21 21 22 23 25 26

GEFSMA_500_meanwind_216.txt.gz
Wind_Speed
26 26 26 26 26 26 26 27 27 26 26 26 26 26 26 26 25 25 24 24 25 25 24 24 24 24 23 23 23 23 22 22 23 23 24 25 25 26 27 27 27 27 27
28 27 26 27 27 27 27 27 27 26 27 26 27 27 26 26 26 26 25 25 25 26 25 25 24 24 24 24 24 23 23 23 23 23 23 24 25 25 26 27 27 28 28
28 27 27 27 27 27 27 27 27 28 27 26 27 27 27 26 26 25 25 25 25 26 26 25 25 25 25 24 24 24 23 23 24 24 24 24 25 26 26 27 28 29 29
27 27 28 28 28 28 28 27 27 27 26 26 26 26 27 26 26 26 25 25 26 26 26 27 26 26 26 25 25 25 25 25 25 25 26 26 26 26 27 28 28 28 29
28 28 28 27 27 27 27 27 27 27 27 26 25 25 25 26 26 26 25 25 26 27 27 27 27 27 27 26 26 26 26 26 26 27 27 27 27 28 28 29 29 29 30
28 28 27 27 27 27 27 27 26 26 26 26 25 24 24 25 26 25 25 25 26 27 27 27 27 27 28 27 27 27 27 27 27 28 28 28 28 29 29 29 30 30 31
27 28 27 27 26 26 25 25 24 25 24 24 24 24 24 23 24 24 25 26 26 27 27 28 28 28 28 28 28 28 28 28 28 29 29 29 30 30 31 30 31 31 32
26 26 26 26 25 25 24 24 23 23 23 24 24 24 24 24 24 25 25 25 26 27 27 28 29 29 29 29 28 28 29 29 29 29 31 31 31 32 33 33 33 33 33
27 26 25 25 24 24 24 22 22 22 23 24 24 25 25 25 25 25 26 25 25 26 27 28 28 29 30 29 29 29 29 30 30 30 31 32 32 33 34 35 35 35 35
25 24 23 23 23 23 23 22 22 23 24 24 25 25 26 25 25 25 25 25 25 26 26 27 28 28 28 29 30 30 30 31 31 31 31 32 33 34 35 36 36 37 37
24 23 22 21 21 21 22 21 23 23 24 25 26 26 26 25 25 25 25 25 26 25 25 26 27 28 28 29 30 31 31 31 32 32 32 32 33 34 34 35 36 37 38
22 22 21 20 20 21 21 22 22 23 23 25 26 26 26 25 25 25 25 25 25 24 25 26 26 27 29 30 30 31 31 32 32 33 34 34 34 34 34 35 36 37 38
21 21 20 20 19 19 19 20 22 22 22 23 24 25 25 25 24 25 25 25 25 25 24 25 26 27 29 30 30 31 32 32 32 33 34 34 35 35 35 35 35 36 37
21 20 19 19 18 17 17 18 19 20 20 21 22 23 24 23 23 24 24 24 24 24 24 25 27 28 28 29 30 31 32 32 32 33 34 34 35 36 35 35 36 37 37
19 18 18 18 17 17 17 18 18 19 18 18 19 20 21 21 22 21 22 22 23 23 24 25 26 26 27 28 29 30 31 32 32 32 33 34 35 35 36 37 37 38 38
18 19 18 17 17 17 16 16 16 16 16 16 17 17 18 19 20 20 20 20 21 22 24 24 24 25 26 27 29 30 30 30 31 32 33 34 35 35 36 37 37 38 38
18 18 17 17 17 16 14 14 13 13 13 13 14 16 17 17 18 18 18 19 21 22 23 24 24 25 25 26 27 28 29 30 31 32 33 34 34 35 35 36 37 38 38
18 17 17 17 17 15 14 12 11 12 12 13 13 14 14 15 16 17 17 19 20 22 22 23 23 23 23 24 25 26 28 29 29 30 31 32 33 34 34 34 34 35 36
17 17 16 16 15 14 12 12 11 11 12 12 13 13 13 14 14 15 17 18 19 21 21 22 23 23 24 24 24 26 27 27 28 29 29 30 31 32 33 33 33 33 34
17 17 17 16 14 12 12 11 10 11 11 11 12 12 12 12 13 14 16 17 18 19 20 20 21 22 22 23 24 24 25 26 27 27 27 28 29 30 31 32 33 33 34
16 16 16 14 12 12 12 11 11 10 11 11 11 12 12 12 13 14 14 15 16 17 18 19 20 21 22 23 23 23 23 24 24 25 25 25 26 27 28 29 30 31 33
16 15 15 13 12 12 12 11 11 10 11 12 12 12 12 12 12 13 14 15 15 16 17 18 19 20 21 22 22 23 24 24 24 24 25 24 25 26 27 28 29 29 31
17 16 14 14 13 12 12 12 12 11 12 12 12 11 12 11 12 12 12 13 14 15 16 17 17 18 19 21 22 22 23 22 23 23 24 24 24 25 26 27 28 28 30
16 15 14 13 13 13 13 13 12 12 13 13 12 11 11 11 11 11 11 12 13 15 16 16 16 17 18 18 20 21 22 23 23 23 24 24 25 25 25 26 27 26 27
13 13 14 13 13 13 14 13 13 13 13 12 11 11 11 11 11 12 12 13 14 15 15 16 17 17 17 18 19 20 21 22 22 23 24 24 24 25 24 25 25 26 26
12 12 13 13 13 14 14 14 14 13 13 11 11 11 11 11 12 12 12 13 14 14 15 16 17 17 18 18 18 19 20 20 21 21 21 21 22 23 23 24 24 25 26

GEFSMA_500_meanwind_222.txt.gz
Wind_Speed
24 25 26 26 26 26 26 27 27 28 28 28 28 28 28 29 28 28 27 27 28 28 28 27 27 26 25 25 24 24 24 24 23 23 23 23 23 23 24 24 24 25 25
25 26 26 27 27 27 27 28 28 29 29 29 29 29 29 29 29 28 28 29 28 29 29 28 28 28 27 26 25 25 25 25 25 24 24 24 24 24 24 24 24 25 25
26 26 27 28 28 28 29 29 29 30 29 29 29 30 29 30 30 29 29 29 29 28 28 28 28 28 27 26 26 26 26 26 26 25 25 25 25 25 25 25 25 25 25
26 27 28 28 29 30 30 29 29 29 29 29 29 30 29 29 29 28 28 28 29 28 28 27 28 28 27 27 27 27 27 27 27 27 27 26 26 26 25 26 26 27 27
27 27 28 29 29 30 30 29 29 29 29 29 29 29 28 28 28 28 28 28 28 28 28 28 28 28 28 28 27 28 28 28 28 28 27 27 27 27 26 26 27 28 28
27 27 27 28 28 28 28 29 29 30 29 29 28 28 28 28 28 28 27 27 28 28 28 28 28 28 28 28 28 28 28 29 29 28 28 28 28 28 27 27 28 28 29
26 27 27 27 27 27 28 28 29 29 28 29 29 29 28 28 28 28 28 27 27 28 29 28 29 29 29 29 28 28 28 30 30 30 29 29 29 29 29 29 29 30 30
26 26 26 26 27 27 28 28 27 28 27 28 28 28 28 29 29 28 28 27 28 29 28 28 29 30 30 29 28 29 30 30 31 30 30 30 30 31 31 31 31 31 31
26 26 25 25 26 26 26 26 26 26 26 26 27 27 28 28 28 29 29 28 27 28 28 28 28 29 30 30 29 29 30 31 31 31 31 31 32 33 33 32 33 32 33
26 26 25 25 25 25 26 26 26 26 25 25 26 27 28 28 28 28 28 28 27 27 27 26 26 28 29 30 30 29 30 31 32 31 32 32 33 33 34 34 34 34 34
26 25 25 24 24 25 25 25 25 25 25 25 26 27 27 27 27 26 26 27 27 26 26 26 26 27 28 29 31 31 31 32 32 32 32 33 34 34 34 34 35 36 36
24 24 24 24 23 23 23 23 24 25 25 25 25 26 26 26 26 25 24 24 25 26 26 26 26 26 27 29 30 31 32 32 33 34 34 35 36 36 35 35 36 37 37
23 23 23 23 22 22 21 21 22 22 23 23 23 24 24 24 25 25 24 23 23 24 25 25 25 26 27 28 29 30 31 31 31 33 34 36 37 37 36 36 37 37 37
22 22 22 21 20 20 20 19 21 21 20 20 20 21 21 22 23 23 23 23 23 23 24 24 25 25 26 27 28 29 30 31 31 32 33 34 36 36 37 36 37 38 38
20 21 21 20 19 19 18 19 19 18 18 17 17 18 19 19 20 20 21 22 23 23 23 23 22 23 24 25 26 28 28 29 31 31 32 34 35 36 37 37 37 38 38
19 20 20 20 19 18 17 17 16 16 15 14 15 16 16 17 17 18 19 20 21 22 21 21 21 22 23 24 25 27 28 29 30 31 33 34 34 35 36 36 36 37 38
18 19 19 19 17 17 16 16 15 14 13 13 12 12 13 14 15 16 18 19 20 21 20 20 22 22 22 23 24 25 26 28 29 30 31 33 33 34 35 35 36 36 37
18 18 18 18 17 16 16 15 14 13 11 10 9 10 10 11 12 14 16 17 18 18 18 20 21 21 21 22 23 23 24 26 27 28 30 32 32 33 34 34 34 35 36
17 17 18 18 17 16 15 15 14 11 10 10 10 10 10 11 12 13 14 15 16 17 18 19 20 21 22 22 22 23 23 25 26 27 28 30 31 32 33 33 34 34 35
17 17 18 17 16 16 15 14 12 11 10 10 10 10 10 11 11 12 13 13 15 15 17 19 20 20 21 21 21 21 22 23 24 26 27 28 29 30 31 31 32 33 34
17 17 17 16 15 15 15 13 12 11 11 11 11 11 11 11 12 11 11 12 13 14 15 17 19 20 20 20 20 21 22 23 24 25 26 27 27 28 29 29 30 31 32
18 17 17 16 15 15 15 13 12 12 12 12 12 12 11 11 11 11 11 11 12 13 14 15 16 18 19 20 20 21 21 22 23 24 25 25 25 25 26 27 28 29 30
18 17 17 16 15 15 15 14 14 13 12 12 12 12 12 11 10 11 11 12 12 13 13 15 16 17 18 19 19 20 21 21 22 23 23 24 24 24 25 25 27 28 29
17 17 17 16 16 16 15 15 14 13 13 13 13 13 12 11 10 10 11 12 13 13 14 14 15 16 17 18 19 20 20 20 21 22 22 22 23 24 24 24 25 25 26
17 17 16 16 17 16 16 15 15 14 14 13 13 12 11 10 10 11 11 11 12 14 15 15 15 15 16 17 17 17 17 18 18 20 21 21 21 22 23 24 25 25 26
17 17 16 17 17 17 17 17 17 16 15 13 12 12 11 11 11 11 12 12 13 14 15 15 14 14 14 15 15 15 16 16 17 18 19 20 20 20 21 22 23 24 24

GEFSMA_500_meanwind_228.txt.gz
Wind_Speed
24 24 24 24 25 25 25 26 26 26 26 26 26 26 27 27 28 28 28 28 28 28 27 27 27 27 28 28 28 27 26 26 25 25 25 25 25 25 24 25 25 24 25
24 24 25 25 26 26 27 27 27 27 27 28 28 28 28 28 28 28 28 28 28 28 28 27 27 28 28 28 28 28 27 26 26 26 26 26 25 25 25 26 25 25 25
25 25 25 26 26 26 27 28 28 29 28 28 29 29 30 30 29 29 28 28 28 28 29 28 28 28 28 28 27 28 28 28 27 27 27 27 27 26 27 27 26 26 26
25 25 25 26 26 27 27 27 27 28 28 28 29 29 29 30 30 30 30 30 29 29 29 29 30 29 29 29 28 28 28 28 28 28 29 28 28 28 28 28 27 27 27
25 25 25 25 25 25 26 26 26 26 26 27 28 28 29 29 30 30 30 30 30 30 29 28 29 30 30 30 30 30 29 29 29 29 30 30 29 29 29 29 28 28 28
24 24 24 24 24 24 25 25 25 25 26 27 28 29 29 30 29 29 30 30 30 30 30 29 29 30 30 30 31 30 30 30 30 30 30 29 30 30 30 30 30 29 29
24 24 25 24 24 24 24 25 25 26 27 28 29 29 29 30 30 30 30 30 30 29 30 30 29 29 29 30 31 31 31 30 30 30 31 30 31 31 31 31 31 31 30
24 25 25 24 24 24 25 25 25 27 27 28 28 28 28 29 29 30 30 30 29 29 28 29 29 28 29 30 32 32 32 32 31 31 31 31 32 32 32 32 32 32 32
24 23 23 24 24 24 25 25 26 26 26 26 26 26 27 27 28 28 28 28 28 27 27 26 27 28 28 29 30 31 32 32 32 32 32 31 31 33 33 34 33 33 34
23 22 22 22 22 23 24 24 24 25 25 25 25 24 24 24 24 25 25 25 26 26 26 26 26 26 27 28 29 31 31 32 32 33 33 33 32 33 33 34 35 35 35
21 21 21 20 21 22 23 23 23 24 24 24 23 23 22 22 22 23 23 24 25 25 25 25 26 27 27 27 28 29 30 32 32 32 33 33 33 34 34 35 36 37 37
21 20 19 19 20 21 22 22 22 21 21 21 21 21 22 21 21 22 22 23 24 25 25 25 26 27 27 27 27 28 29 30 31 32 32 33 33 33 34 34 36 37 38
20 20 19 19 20 20 21 21 20 19 18 19 19 19 19 20 20 21 21 22 23 24 24 25 25 26 26 27 27 27 28 28 30 31 32 33 33 33 33 34 35 37 37
20 18 18 19 20 20 20 18 17 17 17 17 18 18 18 18 19 19 20 21 23 23 24 25 26 25 25 26 25 26 27 27 28 29 31 32 33 34 34 34 35 35 36
17 17 18 19 19 18 17 16 15 15 16 15 15 16 16 17 18 18 18 19 20 22 22 23 24 24 24 25 24 25 26 27 28 29 31 32 33 34 35 35 35 35 36
16 16 17 18 18 17 16 16 15 15 13 13 13 13 15 16 16 17 17 17 17 19 20 21 23 23 23 23 24 25 25 26 27 28 30 31 32 33 34 35 35 35 37
15 16 17 17 18 17 16 15 15 14 14 13 12 12 12 13 14 15 15 16 16 17 18 20 22 22 22 22 23 24 26 26 26 27 29 31 32 33 33 35 36 36 36
15 16 16 17 17 17 16 16 16 15 14 13 12 11 11 11 12 13 14 15 16 17 18 19 20 21 22 22 23 25 26 26 26 28 28 30 31 33 33 34 35 36 36
16 16 17 17 16 16 16 15 15 14 13 12 12 11 11 11 11 12 13 14 15 16 17 18 19 20 21 22 23 24 24 25 25 27 29 29 30 31 33 33 34 35 35
17 17 17 16 15 15 15 15 14 13 12 11 11 11 11 11 12 12 11 12 13 14 15 16 17 18 19 20 22 23 23 23 24 25 27 27 27 29 30 31 32 33 34
17 16 15 14 15 15 15 15 14 13 11 11 11 11 11 10 11 10 10 10 11 12 13 14 14 16 17 18 19 21 21 22 23 24 24 25 26 27 27 29 30 32 32
16 15 15 15 15 15 16 16 14 13 12 11 11 11 11 10 10 10 10 10 10 10 11 11 12 14 15 16 17 19 20 20 20 21 22 23 24 25 26 27 28 30 32
15 15 16 16 16 16 17 17 16 14 12 11 11 11 11 11 11 10 10 9 9 10 11 11 12 13 14 14 15 16 16 17 18 19 20 21 22 23 24 26 27 28 30
14 15 16 17 17 17 17 17 16 14 12 11 10 10 10 9 9 9 9 9 9 9 10 11 12 12 13 14 15 15 15 15 17 17 18 19 20 21 23 24 25 26 27
14 15 16 17 18 18 18 18 16 14 12 11 10 10 9 9 8 8 9 9 9 8 8 10 11 11 11 12 13 13 14 15 15 16 17 18 18 18 19 21 22 23 24
14 15 16 17 18 18 18 17 16 14 13 12 10 10 10 9 9 8 8 8 8 7 8 9 10 11 10 9 10 11 12 13 13 14 14 16 16 17 18 19 20 21 22

GEFSMA_500_meanwind_234.txt.gz
Wind_Speed
23 24 25 25 25 25 25 26 26 27 27 27 27 26 26 26 26 26 28 28 28 28 28 28 28 28 27 27 27 28 27 26 26 26 25 25 25 25 25 24 24 24 23
24 25 25 25 25 26 26 26 26 27 28 28 27 27 28 28 27 27 28 28 28 29 29 29 29 29 28 28 28 28 27 26 26 26 25 25 25 25 25 25 24 25 25
25 24 24 25 26 27 27 27 27 28 28 27 27 27 27 27 27 27 28 29 28 28 28 28 29 29 29 28 28 28 27 26 25 26 26 26 26 27 26 27 25 25 25
25 25 24 25 26 27 27 27 27 27 27 27 27 27 27 27 28 28 28 29 29 29 29 29 28 28 29 29 29 28 28 27 26 26 27 27 27 27 27 27 27 27 27
26 26 25 25 26 26 26 27 27 27 27 27 27 27 27 28 28 29 29 29 29 29 30 29 28 28 28 27 27 28 28 28 28 27 28 28 28 28 29 28 28 29 29
26 26 25 25 26 25 25 26 26 26 28 28 28 28 28 28 29 29 30 30 29 29 29 28 27 27 27 27 27 28 29 29 29 29 29 28 28 29 30 29 29 30 30
25 25 25 25 25 25 25 25 26 27 27 28 28 28 29 30 29 29 28 28 27 27 27 27 26 25 26 26 27 27 28 29 30 29 29 29 29 30 30 31 30 30 31
25 25 26 25 25 24 24 25 25 26 26 26 27 28 28 28 28 27 26 26 26 25 25 25 25 25 25 26 26 28 28 29 30 30 30 30 30 30 30 31 32 32 31
25 25 24 24 24 24 24 24 25 25 25 25 26 26 26 25 24 24 25 25 26 24 24 24 24 25 25 25 26 27 28 29 30 31 31 30 30 31 31 32 33 33 33
24 24 23 23 23 24 24 24 25 25 25 24 24 24 24 23 23 23 23 24 24 24 23 23 24 24 24 25 25 27 28 29 29 30 31 32 32 32 31 31 31 32 33
24 24 23 22 22 22 23 23 23 23 23 23 23 23 23 22 22 23 22 22 22 23 23 23 24 24 24 25 25 26 26 28 29 30 30 31 32 33 32 32 32 32 33
23 22 21 21 21 21 22 22 22 22 22 22 22 22 22 22 21 22 22 21 21 22 23 23 23 24 24 24 24 24 25 26 28 28 28 30 32 33 34 33 33 33 33
21 21 20 20 20 21 21 20 20 20 21 21 21 21 22 21 21 20 20 20 21 21 22 22 23 23 24 23 23 24 24 25 27 27 28 29 30 31 32 34 34 34 34
20 20 20 20 20 20 20 19 19 19 20 20 20 20 20 20 19 18 18 19 20 21 22 23 23 22 23 23 23 24 24 24 26 27 28 28 29 30 31 33 34 34 35
19 19 20 20 20 19 19 18 19 19 19 20 20 19 19 18 17 17 18 19 20 20 21 22 22 23 23 23 23 24 24 24 25 26 27 28 29 30 30 32 33 34 35
19 19 19 18 18 18 18 18 18 19 19 19 18 18 17 17 17 17 17 18 19 20 20 21 22 23 23 24 24 24 24 25 25 26 26 27 28 29 29 31 32 33 34
18 18 18 17 17 17 17 17 17 18 18 17 17 16 14 14 15 15 16 17 18 19 18 19 20 21 22 22 23 23 24 25 25 26 26 26 26 26 27 29 30 31 32
17 17 18 18 18 17 17 17 17 17 16 15 14 13 13 13 14 14 15 15 15 16 16 17 18 19 19 20 20 21 23 24 24 24 25 25 26 26 27 28 29 30 31
17 17 17 18 18 18 17 16 16 15 15 14 14 13 13 13 13 13 13 14 14 14 15 15 15 15 16 17 18 19 20 21 22 23 23 24 25 26 27 27 28 29 30
17 17 18 18 18 17 17 17 17 16 15 14 14 13 13 14 14 14 13 13 12 12 12 12 12 14 14 15 17 17 18 19 20 21 22 22 23 25 25 26 27 28 29
17 17 17 17 18 17 17 18 18 17 16 15 15 14 14 14 14 14 13 12 11 10 10 11 12 13 14 15 15 15 16 17 18 19 20 21 22 24 25 25 26 27 27
16 16 17 17 18 18 18 18 17 17 16 16 16 15 14 13 13 13 12 11 11 10 10 10 11 12 12 12 13 14 14 16 17 18 19 19 21 22 23 24 25 25 26
16 16 17 18 18 18 18 18 18 18 17 16 16 15 14 13 12 12 11 11 10 10 10 10 10 10 12 11 11 12 13 13 15 16 16 17 18 19 20 22 23 23 24
17 17 17 17 18 18 18 19 19 18 17 16 16 15 14 13 11 11 10 10 9 9 9 9 9 9 10 10 10 10 10 11 12 13 14 15 17 18 19 20 21 22 23
16 16 17 17 18 19 18 19 20 19 18 17 17 16 14 12 11 11 10 9 9 9 9 9 9 9 9 8 8 9 9 10 11 12 13 14 14 16 17 17 18 19 20
16 16 17 17 18 19 19 19 20 19 19 18 17 15 13 12 11 11 11 10 9 9 8 8 8 8 7 8 8 8 9 9 11 12 12 13 14 15 15 16 17 17 19

GEFSMA_500_meanwind_240.txt.gz
Wind_Speed
20 21 21 21 21 21 23 23 23 24 24 24 24 24 24 24 25 26 27 28 28 28 29 29 30 30 29 30 30 30 29 28 27 27 26 26 27 27 26 26 24 24 23
20 20 21 22 22 22 23 24 24 24 24 24 25 25 26 25 25 26 27 29 29 29 29 29 29 29 30 30 30 30 30 29 28 27 27 26 26 28 27 26 26 25 24
20 20 21 21 22 23 23 24 25 25 26 26 26 26 26 25 26 26 27 28 29 30 30 30 29 28 29 29 29 29 29 30 29 28 28 27 26 27 27 28 27 26 25
21 21 21 21 22 22 23 24 25 26 26 27 27 27 27 27 26 27 27 28 29 30 30 30 29 29 28 28 29 30 29 30 29 29 28 28 27 27 27 28 28 27 27
21 21 21 21 22 22 23 23 24 25 26 26 27 27 27 28 27 27 27 28 29 29 30 30 30 30 29 28 28 29 29 29 29 29 29 29 29 27 27 28 29 29 28
21 21 21 21 22 22 22 23 24 24 25 26 26 26 27 26 27 27 28 27 27 28 28 29 30 30 30 29 28 28 28 29 30 29 29 29 29 29 28 28 30 30 29
21 22 22 22 22 22 23 23 23 23 24 24 24 24 24 25 25 27 27 26 26 26 26 27 27 28 28 28 28 27 27 28 29 30 30 30 30 29 29 29 29 30 30
22 21 22 21 21 22 22 22 22 22 22 23 23 24 23 24 24 25 26 26 26 25 25 25 26 27 27 28 29 28 28 28 29 30 30 30 30 30 29 30 29 29 30
22 21 20 20 21 21 20 20 21 21 22 22 23 23 22 23 23 23 23 24 25 25 25 24 26 27 27 27 28 28 29 28 28 29 30 31 31 31 31 30 30 30 31
21 21 20 20 20 20 19 19 20 20 21 22 22 22 22 22 22 21 22 23 23 24 24 24 25 26 27 27 28 29 29 29 29 29 29 30 32 32 33 31 31 31 31
20 20 20 20 20 20 19 19 19 20 20 21 21 21 21 21 21 20 20 21 22 24 23 23 23 25 26 27 27 29 29 30 30 29 29 31 32 33 33 32 32 32 31
20 20 19 19 18 19 19 18 18 19 19 19 20 20 20 20 20 20 19 20 21 23 24 23 23 24 26 26 26 28 29 29 30 31 30 30 31 31 32 33 33 33 33
19 19 19 18 18 18 18 18 18 17 17 18 19 19 19 19 19 19 19 20 20 21 23 23 24 25 25 25 25 26 27 29 29 29 31 31 30 30 31 32 33 33 33
19 19 18 18 18 18 17 17 16 16 17 18 18 18 18 18 19 19 19 19 18 19 20 22 23 24 25 25 26 26 27 27 27 28 29 31 31 31 31 31 32 32 32
19 18 18 17 17 17 17 16 16 16 16 17 17 18 18 17 17 17 17 17 17 18 19 21 23 25 25 25 25 25 26 27 27 27 28 29 30 31 31 32 33 33 32
18 17 17 17 16 16 16 16 16 15 15 16 17 17 17 17 16 16 16 16 17 18 19 20 21 23 24 25 25 25 25 26 26 27 27 27 28 30 31 31 32 32 31
17 16 15 15 15 15 15 16 16 15 15 15 17 16 16 16 15 15 15 16 17 18 18 18 20 21 23 24 25 24 24 25 25 26 26 26 27 28 30 31 31 31 31
17 16 15 15 15 15 15 15 14 14 14 15 15 15 15 13 13 13 14 15 16 16 17 17 18 19 20 21 22 22 23 24 25 25 25 26 26 27 28 29 30 30 30
16 15 15 15 15 15 14 13 13 13 13 13 14 14 13 13 13 13 14 14 14 14 15 15 16 17 18 19 19 20 21 21 22 23 23 24 25 25 26 27 28 29 29
15 15 15 15 15 14 14 13 13 14 14 14 14 14 13 13 13 13 13 13 12 11 11 13 13 14 15 16 18 18 18 19 20 21 21 22 22 22 24 25 26 27 28
15 15 15 15 15 14 13 13 14 15 15 14 14 13 13 13 13 13 12 12 11 10 9 10 11 11 12 13 14 16 17 18 18 20 20 20 20 21 22 22 23 25 26
15 16 15 15 16 15 14 14 14 14 14 14 14 13 13 13 13 13 12 11 10 9 9 9 9 10 10 11 12 13 15 17 17 18 18 18 19 19 19 20 20 22 23
15 15 15 16 16 16 15 15 14 14 15 15 14 14 13 13 13 13 12 11 10 8 8 8 9 9 10 10 11 12 13 14 14 14 15 15 16 17 18 18 19 20 21
15 16 16 16 16 16 16 15 15 15 15 15 14 14 13 12 12 12 12 11 10 9 8 8 8 8 8 9 10 10 10 11 12 12 13 14 14 16 17 18 19 20 21
16 16 16 16 16 16 16 16 15 15 15 15 14 14 13 12 12 12 11 11 10 9 8 8 8 8 8 8 9 10 10 11 12 13 12 13 14 15 17 17 18 19 20
16 16 16 16 16 16 17 16 16 15 15 15 15 14 13 12 12 12 11 11 10 9 8 8 7 7 8 8 8 8 9 10 11 12 11 12 12 13 15 16 16 17 18